STARLINK-34050 (64331 NORAD) Tracking and Keplerian Element Data

This shows tracking and keplerian element data for the satellite.

Feedback or suggestion? Click here.




ElementValue
Catalog64331
NameSTARLINK-34050
Epoch Orbit3065
Epoch Day354.00762929
Epoch Year2025
RAAN211.7555
Inclination43.0005
Eccentricity0.0001242
Argument of Perigee46.9208
Mean Anonmoly313.1747
Mean Motion15.27613516
Decay Rate0.00015706
L11 64331U 25124Q 25354.00762929 .00015706 00000+0 57845-3 0 9995
L22 64331 43.0005 211.7555 0001242 46.9208 313.1747 15.27613516 30652



Live tracking and technical data element details for STARLINK-34050 (NORAD 64331). STARLINK-34050 can be tracked NOW for your location showing map with azimuth and elevation plus other details from your city location.







IsCatalogInMostPopularTable: catalog: 64331, numindb: 11
Update: records affected: 1



GetName: 64331 STARLINK-34050

Hit Count: updated at: Mon, 20 Apr 2026 10:47:56 GMT